International Skating Union - Official Site

ISU World Allround Championships 2016
March 5-6, 2016

Draw | Lap Times | Index | Classification

Referee: Knut Arthur  OLSEN  (NOR)
Starter: Sebastian  ZAMANI  (SWE)
StartTime: EndTime: Air Temp: Ice Temp: Humidity:
16:06 17:18 15.2℃ -7℃ 64%
Result 3000m Ladies
Rankings as of Mar 5 2016 6:13PM
Rank: No.: Name: Nation: Time: Behind: Points:
1 106 Martina  Sábliková CZE CZE 3:58.11200m - 20.16 - (20.1)
600m - 50.65 - (30.4)
1000m - 1:21.56 - (30.9)
1400m - 1:52.60 - (31.0)
1800m - 2:23.74 - (31.1)
2200m - 2:55.05 - (31.3)
2600m - 3:26.49 - (31.4)
3000m - 3:58.11 - (31.6)
39.685
2 118 Ireen  Wüst NED NED 3:59.43200m - 19.88 - (19.8)
600m - 50.38 - (30.5)
1000m - 1:21.36 - (30.9)
1400m - 1:52.52 - (31.1)
1800m - 2:23.55 - (31.0)
2200m - 2:54.80 - (31.2)
2600m - 3:26.74 - (31.9)
3000m - 3:59.43 - (32.6)
1.32 39.905
3 115 Antoinette  de Jong NED NED 4:02.88200m - 19.97 - (19.9)
600m - 50.92 - (30.9)
1000m - 1:21.91 - (30.9)
1400m - 1:53.38 - (31.4)
1800m - 2:25.15 - (31.7)
2200m - 2:57.23 - (32.0)
2600m - 3:29.78 - (32.5)
3000m - 4:02.88 - (33.1)
4.77 40.480
4 127 Natalya  Voronina RUS RUS 4:04.98200m - 20.08 - (20.0)
600m - 51.53 - (31.4)
1000m - 1:22.70 - (31.1)
1400m - 1:54.39 - (31.6)
1800m - 2:26.64 - (32.2)
2200m - 2:59.16 - (32.5)
2600m - 3:31.92 - (32.7)
3000m - 4:04.98 - (33.0)
6.87 40.830
5 116 Linda  de Vries NED NED 4:05.61200m - 19.79 - (19.7)
600m - 50.12 - (30.3)
1000m - 1:20.83 - (30.7)
1400m - 1:52.00 - (31.1)
1800m - 2:23.86 - (31.8)
2200m - 2:56.86 - (33.0)
2600m - 3:31.07 - (34.2)
3000m - 4:05.61 - (34.5)
7.50 40.935
6 113 Misaki  Oshigiri JPN JPN 4:07.82200m - 19.81 - (19.8)
600m - 51.00 - (31.1)
1000m - 1:22.90 - (31.9)
1400m - 1:55.13 - (32.2)
1800m - 2:27.57 - (32.4)
2200m - 3:00.60 - (33.0)
2600m - 3:34.21 - (33.6)
3000m - 4:07.82 - (33.6)
9.71 41.303
7 110 Claudia  Pechstein GER GER 4:08.01200m - 20.38 - (20.3)
600m - 52.15 - (31.7)
1000m - 1:24.37 - (32.2)
1400m - 1:57.10 - (32.7)
1800m - 2:29.82 - (32.7)
2200m - 3:02.87 - (33.0)
2600m - 3:35.66 - (32.7)
3000m - 4:08.01 - (32.3)
9.90 41.335
8 125 Olga  Graf RUS RUS 4:08.19200m - 21.36 - (21.3)
600m - 53.24 - (31.8)
1000m - 1:25.29 - (32.0)
1400m - 1:57.33 - (32.0)
1800m - 2:29.84 - (32.5)
2200m - 3:02.58 - (32.7)
2600m - 3:35.65 - (33.0)
3000m - 4:08.19 - (32.5)
10.08 41.365
9 121 Ida  Njåtun NOR NOR 4:08.79200m - 20.04 - (20.0)
600m - 51.42 - (31.3)
1000m - 1:23.32 - (31.9)
1400m - 1:55.61 - (32.2)
1800m - 2:28.23 - (32.6)
2200m - 3:01.15 - (32.9)
2600m - 3:34.63 - (33.4)
3000m - 4:08.79 - (34.1)
10.68 41.465
10 114 Miho  Takagi JPN JPN 4:09.04200m - 20.41 - (20.4)
600m - 52.15 - (31.7)
1000m - 1:23.42 - (31.2)
1400m - 1:55.28 - (31.8)
1800m - 2:27.84 - (32.5)
2200m - 3:00.82 - (32.9)
2600m - 3:34.57 - (33.7)
3000m - 4:09.04 - (34.4)
10.93 41.506
11 124 Luiza  Zlotkowska POL POL 4:09.56200m - 20.25 - (20.2)
600m - 52.21 - (31.9)
1000m - 1:24.28 - (32.0)
1400m - 1:56.41 - (32.1)
1800m - 2:28.71 - (32.3)
2200m - 3:01.96 - (33.2)
2600m - 3:35.42 - (33.4)
3000m - 4:09.56 - (34.1)
11.45 41.593
12 112 Ayaka  Kikuchi JPN JPN 4:10.75200m - 19.96 - (19.9)
600m - 51.18 - (31.2)
1000m - 1:22.65 - (31.4)
1400m - 1:54.56 - (31.9)
1800m - 2:27.35 - (32.7)
2200m - 3:01.10 - (33.7)
2600m - 3:35.66 - (34.5)
3000m - 4:10.75 - (35.0)
12.64 41.791
13 126 Yuliya  Skokova RUS RUS 4:11.42200m - 19.83 - (19.8)
600m - 51.78 - (31.9)
1000m - 1:24.08 - (32.3)
1400m - 1:56.82 - (32.7)
1800m - 2:29.67 - (32.8)
2200m - 3:02.83 - (33.1)
2600m - 3:36.76 - (33.9)
3000m - 4:11.42 - (34.6)
13.31 41.903
14 122 Natalia  Czerwonka POL POL 4:12.77200m - 20.13 - (20.1)
600m - 52.25 - (32.1)
1000m - 1:24.29 - (32.0)
1400m - 1:56.40 - (32.1)
1800m - 2:29.06 - (32.6)
2200m - 3:02.32 - (33.2)
2600m - 3:36.93 - (34.6)
3000m - 4:12.77 - (35.8)
14.66 42.128
15 101 Marina  Zuyeva BLR BLR 4:14.06200m - 21.01 - (21.0)
600m - 53.52 - (32.5)
1000m - 1:26.39 - (32.8)
1400m - 1:59.22 - (32.8)
1800m - 2:32.19 - (32.9)
2200m - 3:05.80 - (33.6)
2600m - 3:39.80 - (34.0)
3000m - 4:14.06 - (34.2)
15.95 42.343
16 102 Ivanie  Blondin CAN CAN 4:14.13200m - 20.84 - (20.8)
600m - 53.21 - (32.3)
1000m - 1:25.49 - (32.2)
1400m - 1:58.05 - (32.5)
1800m - 2:31.03 - (32.9)
2200m - 3:04.46 - (33.4)
2600m - 3:38.72 - (34.2)
3000m - 4:14.13 - (35.4)
16.02 42.355
17 103 Jiachen  Hao CHN CHN 4:14.55200m - 20.17 - (20.1)
600m - 51.89 - (31.7)
1000m - 1:24.29 - (32.4)
1400m - 1:57.42 - (33.1)
1800m - 2:31.30 - (33.8)
2200m - 3:05.65 - (34.3)
2600m - 3:40.16 - (34.5)
3000m - 4:14.55 - (34.3)
16.44 42.425
18 111 Francesca  Lollobrigida ITA ITA 4:14.60200m - 20.40 - (20.4)
600m - 51.35 - (30.9)
1000m - 1:23.33 - (31.9)
1400m - 1:56.06 - (32.7)
1800m - 2:29.47 - (33.4)
2200m - 3:03.90 - (34.4)
2600m - 3:39.14 - (35.2)
3000m - 4:14.60 - (35.4)
16.49 42.433
19 108 Roxanne  Dufter GER GER 4:15.39200m - 20.49 - (20.4)
600m - 52.70 - (32.2)
1000m - 1:25.54 - (32.8)
1400m - 1:58.44 - (32.9)
1800m - 2:31.75 - (33.3)
2200m - 3:05.53 - (33.7)
2600m - 3:40.05 - (34.5)
3000m - 4:15.39 - (35.3)
17.28 42.565
20 104 Jing  Liu CHN CHN 4:15.61200m - 21.28 - (21.2)
600m - 53.25 - (31.9)
1000m - 1:26.52 - (33.2)
1400m - 1:59.59 - (33.0)
1800m - 2:33.03 - (33.4)
2200m - 3:06.75 - (33.7)
2600m - 3:41.10 - (34.3)
3000m - 4:15.61 - (34.5)
17.50 42.601
21 105 Xin  Zhao CHN CHN 4:17.17200m - 20.80 - (20.8)
600m - 52.25 - (31.4)
1000m - 1:24.56 - (32.3)
1400m - 1:57.91 - (33.3)
1800m - 2:31.75 - (33.8)
2200m - 3:06.18 - (34.4)
2600m - 3:41.53 - (35.3)
3000m - 4:17.17 - (35.6)
19.06 42.861
22 119 Sofie-Karoline  Haugen NOR NOR 4:19.14200m - 21.07 - (21.0)
600m - 52.62 - (31.5)
1000m - 1:25.06 - (32.4)
1400m - 1:58.33 - (33.2)
1800m - 2:32.09 - (33.7)
2200m - 3:06.86 - (34.7)
2600m - 3:42.65 - (35.7)
3000m - 4:19.14 - (36.4)
21.03 43.190
23 128 Kelly  Gunther USA USA 4:22.26200m - 20.09 - (20.0)
600m - 51.94 - (31.8)
1000m - 1:24.52 - (32.5)
1400m - 1:57.58 - (33.0)
1800m - 2:32.12 - (34.5)
2200m - 3:07.44 - (35.3)
2600m - 3:44.08 - (36.6)
3000m - 4:22.26 - (38.1)
24.15 43.710
24 123 Aleksandra  Goss POL POL 4:23.70200m - 20.89 - (20.8)
600m - 53.57 - (32.6)
1000m - 1:26.60 - (33.0)
1400m - 2:00.34 - (33.7)
1800m - 2:34.77 - (34.4)
2200m - 3:10.39 - (35.6)
2600m - 3:46.71 - (36.3)
3000m - 4:23.70 - (36.9)
25.59 43.950